| time (UTC) | temp F | wind direction | speed MPH | gust MPH | rain 1hr in | rain 24hr in | rain mn in | humidity % | barometer mb |
| 20260504150503 | 52 | 309 | 2.0 | 3.0 | 0.00 | 0.00 | 0.00 | 87 | 1012.1 |
| 20260504140504 | 50 | 312 | 0.0 | 2.0 | 0.00 | 0.00 | 0.00 | 87 | 1012.0 |
| 20260504130503 | 50 | 0 | 0.0 | 0.0 | 0.00 | 0.00 | 0.00 | 87 | 1011.4 |
| 20260504110503 | 50 | 233 | 0.0 | 1.0 | 0.00 | 0.00 | 0.00 | 87 | 1011.4 |
| 20260504080504 | 52 | 350 | 0.0 | 1.0 | 0.00 | 0.00 | 0.00 | 85 | 1012.0 |
| 20260504050503 | 56 | 358 | 1.0 | 2.0 | 0.00 | 0.00 | 0.00 | 79 | 1011.5 |
| 20260504050004 | 56 | 11 | 1.0 | 2.0 | 0.00 | 0.00 | 0.00 | 79 | 1011.5 |
| 20260504040503 | 58 | 350 | 0.0 | 1.0 | 0.00 | 0.00 | 0.00 | 78 | 1010.8 |
| 20260504040004 | 59 | 325 | 0.0 | 3.0 | 0.00 | 0.00 | 0.00 | 77 | 1010.8 |
| 20260504030503 | 61 | 304 | 1.0 | 3.0 | 0.00 | 0.00 | 0.00 | 70 | 1010.4 |
| 20260504030004 | 61 | 287 | 2.0 | 8.0 | 0.00 | 0.00 | 0.00 | 70 | 1010.2 |
| 20260504020503 | 64 | 273 | 3.0 | 8.0 | 0.00 | 0.00 | 0.00 | 61 | 1009.8 |
| 20260504020004 | 65 | 277 | 3.0 | 12.0 | 0.00 | 0.00 | 0.00 | 61 | 1009.9 |
| 20260504010503 | 69 | 267 | 3.0 | 7.0 | 0.00 | 0.00 | 0.00 | 53 | 1009.9 |
| 20260504010003 | 69 | 251 | 3.0 | 12.0 | 0.00 | 0.00 | 0.00 | 55 | 1009.9 |
| 20260504000504 | 70 | 225 | 5.0 | 10.0 | 0.00 | 0.00 | 0.00 | 53 | 1009.6 |
| 20260503230504 | 71 | 250 | 3.0 | 8.0 | 0.00 | 0.00 | 0.00 | 53 | 1009.6 |
| 20260503230004 | 71 | 274 | 5.0 | 10.0 | 0.00 | 0.00 | 0.00 | 53 | 1009.7 |
| 20260503220504 | 70 | 195 | 5.0 | 12.0 | 0.00 | 0.00 | 0.00 | 51 | 1010.0 |
| 20260503220004 | 70 | 268 | 5.0 | 10.0 | 0.00 | 0.00 | 0.00 | 52 | 1010.0 |
| 20260503210504 | 69 | 255 | 3.0 | 9.0 | 0.00 | 0.00 | 0.00 | 58 | 1010.0 |
| 20260503210004 | 69 | 269 | 3.0 | 9.0 | 0.00 | 0.00 | 0.00 | 58 | 1010.0 |
| 20260503200503 | 67 | 223 | 2.0 | 9.0 | 0.00 | 0.00 | 0.00 | 70 | 1010.4 |
| 20260503200004 | 67 | 214 | 4.0 | 10.0 | 0.00 | 0.00 | 0.00 | 70 | 1010.6 |
| 20260503190502 | 66 | 235 | 4.0 | 7.0 | 0.00 | 0.00 | 0.00 | 71 | 1010.5 |
| 20260503180503 | 64 | 253 | 3.0 | 6.0 | 0.00 | 0.00 | 0.00 | 74 | 1010.3 |
| 20260503180002 | 64 | 254 | 4.0 | 8.0 | 0.00 | 0.00 | 0.00 | 74 | 1010.4 |